Big Bear City, CA

12:31 AM PDT on March 26, 2017 (GMT -0700)
Big Bear City

Weather History for KL35 - January, 2013

Change the Weather History Date:

Tuesday, January 15, 2013

  Actual Average (KBUO) Record (KBUO)
Temperature  
Mean Temperature 29 °F -  
Max Temperature 35 °F 58 °F 75 °F (2000)
Min Temperature 23 °F 41 °F 37 °F (2001)
Degree Days  
Heating Degree Days 36    
Moisture  
Dew Point 13 °F    
Average Humidity 50    
Maximum Humidity 64    
Minimum Humidity 40    
Precipitation  
Precipitation 0.00 in - - ()
Sea Level Pressure  
Sea Level Pressure 30.34 in    
Wind  
Wind Speed 11 mph (ENE)    
Max Wind Speed 20 mph    
Max Gust Speed 32 mph    
Visibility 10 miles    
Events      
Averages and records for this station are not official NWS values.
T = Trace of Precipitation, MM = Missing Value Source: NWS Daily Summary

Daily Weather History Graph

Daily Weather History Graph

Search for Another Location

Airport or City:

Trip Planner

Search our weather history database for the weather conditions in past years. The results will help you decide how hot, cold, wet, or windy it might be!

Date:

Astronomy

Jan. 15, 2013 Rise Set
Actual Time 6:53 AM PST 5:01 PM PST
Civil Twilight 6:25 AM PST 5:28 PM PST
Nautical Twilight 5:55 AM PST 5:59 PM PST
Astronomical Twilight 5:25 AM PST 6:29 PM PST
Moon 9:14 AM PST (1/15) 9:40 PM PST (1/15)
Length of Visible Light 11h 02m
Length of Day
10h 07m
Waxing Crescent, 20% of the Moon is Illuminated
Jan 15
Waxing Crescent
Jan 18
First Quarter
Jan 26
Full
Feb 3
Last Quarter
Feb 9
New

Hourly Weather History & Observations

Time (PST) Temp. Windchill Dew Point Humidity Pressure Visibility Wind Dir Wind Speed Gust Speed Precip Events Conditions
12:15 AM 24.8 °F 12.9 °F 3.2 °F 40% 30.22 in 10.0 mi NNE 13.8 mph 27.6 mph N/A   Clear
12:35 AM 23.0 °F 11.1 °F 3.2 °F 43% 30.23 in 10.0 mi NNE 12.7 mph 23.0 mph N/A   Clear
12:55 AM 24.8 °F 12.9 °F 3.2 °F 40% 30.23 in 10.0 mi NE 13.8 mph 24.2 mph N/A   Clear
1:15 AM 24.8 °F 14.0 °F 3.2 °F 40% 30.24 in 10.0 mi NE 11.5 mph 24.2 mph N/A   Clear
1:35 AM 24.8 °F 16.9 °F 3.2 °F 40% 30.24 in 10.0 mi NE 6.9 mph 17.3 mph N/A   Clear
1:55 AM 24.8 °F 15.3 °F 3.2 °F 40% 30.25 in 10.0 mi NE 9.2 mph 17.3 mph N/A   Clear
2:15 AM 24.8 °F 11.9 °F 3.2 °F 40% 30.26 in 10.0 mi NE 16.1 mph 25.3 mph N/A   Clear
2:55 AM 24.8 °F 12.9 °F 3.2 °F 40% 30.26 in 10.0 mi NE 13.8 mph 25.3 mph N/A   Clear
3:15 AM 26.6 °F 15.2 °F 6.8 °F 43% 30.26 in 10.0 mi NE 13.8 mph 21.9 mph N/A   Clear
3:35 AM 26.6 °F 17.5 °F 8.6 °F 47% 30.27 in 10.0 mi NNE 9.2 mph 17.3 mph N/A   Clear
4:15 AM 26.6 °F 17.5 °F 8.6 °F 47% 30.27 in 10.0 mi NE 9.2 mph 17.3 mph N/A   Clear
4:35 AM 26.6 °F 16.2 °F 10.4 °F 51% 30.27 in 10.0 mi NNE 11.5 mph 17.3 mph N/A   Clear
4:55 AM 26.6 °F 16.2 °F 10.4 °F 51% 30.27 in 10.0 mi NE 11.5 mph 20.7 mph N/A   Clear
5:15 AM 26.6 °F 16.2 °F 10.4 °F 51% 30.27 in 10.0 mi NE 11.5 mph 18.4 mph N/A   Clear
5:35 AM 26.6 °F 17.5 °F 10.4 °F 51% 30.28 in 10.0 mi NNE 9.2 mph 17.3 mph N/A   Clear
5:55 AM 26.6 °F 17.5 °F 12.2 °F 55% 30.28 in 10.0 mi NNE 9.2 mph 21.9 mph N/A   Clear
6:15 AM 26.6 °F 16.8 °F 12.2 °F 55% 30.28 in 10.0 mi NNE 10.4 mph 24.2 mph N/A   Clear
6:35 AM 26.6 °F 13.4 °F 12.2 °F 55% 30.28 in 10.0 mi NE 18.4 mph 26.5 mph N/A   Clear
6:55 AM 26.6 °F 16.2 °F 12.2 °F 55% 30.29 in 10.0 mi NE 11.5 mph 25.3 mph N/A   Clear
7:15 AM 26.6 °F 16.2 °F 12.2 °F 55% 30.31 in 10.0 mi NNE 11.5 mph 26.5 mph N/A   Clear
7:35 AM 26.6 °F 17.5 °F 12.2 °F 55% 30.34 in 10.0 mi NE 9.2 mph 32.2 mph N/A   Clear
7:55 AM 26.6 °F 18.2 °F 12.2 °F 55% 30.36 in 10.0 mi East 8.1 mph 17.3 mph N/A   Clear
8:15 AM 26.6 °F 15.7 °F 12.2 °F 55% 30.37 in 10.0 mi ENE 12.7 mph 21.9 mph N/A   Clear
8:35 AM 28.4 °F 17.0 °F 12.2 °F 51% 30.36 in 10.0 mi ENE 15.0 mph 21.9 mph N/A   Clear
8:55 AM 28.4 °F 18.0 °F 12.2 °F 51% 30.37 in 10.0 mi NE 12.7 mph 32.2 mph N/A   Clear
9:15 AM 28.4 °F 16.2 °F 12.2 °F 51% 30.37 in 10.0 mi ENE 17.3 mph 24.2 mph N/A   Clear
9:35 AM 30.2 °F 20.2 °F 14.0 °F 51% 30.38 in 10.0 mi NE 12.7 mph 27.6 mph N/A   Clear
9:55 AM 32.0 °F 21.2 °F 14.0 °F 48% 30.37 in 10.0 mi NE 16.1 mph 26.5 mph N/A   Clear
10:15 AM 32.0 °F 21.6 °F 14.0 °F 48% 30.36 in 10.0 mi NNE 15.0 mph 25.3 mph N/A   Clear
10:35 AM 32.0 °F 21.2 °F 14.0 °F 48% 30.35 in 10.0 mi NE 16.1 mph 26.5 mph N/A   Clear
10:55 AM 33.8 °F 22.5 °F 14.0 °F 44% 30.34 in 10.0 mi NE 19.6 mph 28.8 mph N/A   Clear
11:35 AM 32.0 °F 23.6 °F 14.0 °F 48% 30.35 in 10.0 mi East 10.4 mph 20.7 mph N/A   Clear
11:55 AM 32.0 °F 22.1 °F 14.0 °F 48% 30.36 in 10.0 mi ENE 13.8 mph 26.5 mph N/A   Clear
12:15 PM 32.0 °F 23.6 °F 14.0 °F 48% 30.34 in 10.0 mi East 10.4 mph 19.6 mph N/A   Clear
12:35 PM 32.0 °F 24.8 °F 14.0 °F 48% 30.33 in 10.0 mi ENE 8.1 mph 24.2 mph N/A   Clear
12:55 PM 33.8 °F 29.6 °F 14.0 °F 44% 30.33 in 10.0 mi West 4.6 mph - N/A   Clear
1:15 PM 33.8 °F 30.8 °F 14.0 °F 44% 30.33 in 10.0 mi West 3.5 mph - N/A   Clear
1:35 PM 33.8 °F 27.0 °F 14.0 °F 44% 30.32 in 10.0 mi ENE 8.1 mph - N/A   Clear
1:55 PM 33.8 °F 24.8 °F 14.0 °F 44% 30.33 in 10.0 mi ENE 12.7 mph 19.6 mph N/A   Clear
2:15 PM 35.6 °F 28.6 °F 14.0 °F 41% 30.33 in 10.0 mi ENE 9.2 mph 18.4 mph N/A   Clear
2:35 PM 35.6 °F 26.6 °F 14.0 °F 41% 30.33 in 10.0 mi ENE 13.8 mph 24.2 mph N/A   Clear
2:55 PM 35.6 °F 28.6 °F 14.0 °F 41% 30.34 in 10.0 mi East 9.2 mph 18.4 mph N/A   Clear
3:35 PM 33.8 °F 29.6 °F 14.0 °F 44% 30.35 in 10.0 mi ESE 4.6 mph 18.4 mph N/A   Clear
3:55 PM 33.8 °F 25.8 °F 14.0 °F 44% 30.36 in 10.0 mi East 10.4 mph 18.4 mph N/A   Clear
4:15 PM 32.0 °F 24.8 °F 14.0 °F 48% 30.36 in 10.0 mi ESE 8.1 mph - N/A   Clear
4:35 PM 32.0 °F 25.6 °F 15.8 °F 51% 30.37 in 10.0 mi East 6.9 mph - N/A   Clear
4:55 PM 32.0 °F 25.6 °F 15.8 °F 51% 30.37 in 10.0 mi East 6.9 mph - N/A   Clear
5:15 PM 32.0 °F - 15.8 °F 51% 30.37 in 10.0 mi Calm Calm - N/A   Clear
5:35 PM 32.0 °F 27.5 °F 15.8 °F 51% 30.37 in 10.0 mi North 4.6 mph - N/A   Clear
5:55 PM 33.8 °F 30.8 °F 15.8 °F 48% 30.37 in 10.0 mi SSE 3.5 mph 16.1 mph N/A   Clear
6:15 PM 32.0 °F 22.5 °F 15.8 °F 51% 30.38 in 10.0 mi ENE 12.7 mph 21.9 mph N/A   Clear
6:35 PM 32.0 °F 22.1 °F 15.8 °F 51% 30.39 in 10.0 mi East 13.8 mph 17.3 mph N/A   Clear
6:55 PM 30.2 °F 20.2 °F 15.8 °F 55% 30.39 in 10.0 mi East 12.7 mph - N/A   Clear
7:15 PM 28.4 °F 22.2 °F 17.6 °F 64% 30.39 in 10.0 mi ENE 5.8 mph - N/A   Clear
7:35 PM 28.4 °F 23.3 °F 17.6 °F 64% 30.41 in 10.0 mi ESE 4.6 mph - N/A   Clear
7:55 PM 30.2 °F 22.6 °F 17.6 °F 60% 30.41 in 10.0 mi East 8.1 mph - N/A   Clear
8:15 PM 32.0 °F 22.1 °F 17.6 °F 55% 30.41 in 10.0 mi East 13.8 mph 19.6 mph N/A   Clear
8:35 PM 32.0 °F 24.8 °F 15.8 °F 51% 30.42 in 10.0 mi East 8.1 mph - N/A   Clear
8:55 PM 32.0 °F 24.2 °F 15.8 °F 51% 30.42 in 10.0 mi ESE 9.2 mph - N/A   Clear
9:15 PM 30.2 °F 24.3 °F 15.8 °F 55% 30.42 in 10.0 mi East 5.8 mph - N/A   Clear
9:35 PM 30.2 °F 24.3 °F 15.8 °F 55% 30.42 in 10.0 mi East 5.8 mph - N/A   Clear
10:15 PM 28.4 °F 24.6 °F 15.8 °F 59% 30.43 in 10.0 mi NE 3.5 mph - N/A   Clear
10:35 PM 28.4 °F 19.1 °F 15.8 °F 59% 30.43 in 10.0 mi East 10.4 mph - N/A   Clear
10:55 PM 28.4 °F 20.4 °F 15.8 °F 59% 30.42 in 10.0 mi East 8.1 mph - N/A   Clear
11:15 PM 32.0 °F 20.8 °F 17.6 °F 55% 30.42 in 10.0 mi NE 17.3 mph 26.5 mph N/A   Clear
11:35 PM 33.8 °F 24.8 °F 17.6 °F 52% 30.42 in 10.0 mi NE 12.7 mph 29.9 mph N/A   Clear
11:55 PM 33.8 °F 25.8 °F 17.6 °F 52% 30.42 in 10.0 mi NE 10.4 mph 20.7 mph N/A   Clear